Regional Weather Roundup
Issued by NWS

Home | Current Version | Previous Version | Graphics & Text | Print | Product List | Glossary On
Versions: 1 2 3 4 5 6 7 8 9 10 11 12 13 14 15 16 17 18 19 20 21 22 23 24 25 26 27 28 29 30 31 32 33 34 35 36 37 38 39 40 41 42 43 44 45 46 47 48 49 50
983
ASUS43 KBIS 270810
RWRND

NORTH DAKOTA REGIONAL WEATHER ROUNDUP
NATIONAL WEATHER SERVICE BISMARCK ND
300 AM CDT SAT MAY 27 2017

NOTE: "FAIR" INDICATES FEW OR NO CLOUDS BELOW 12,000 FEET WITH NO
SIGNIFICANT WEATHER AND/OR OBSTRUCTIONS TO VISIBILITY.


NDZ001>003-009>011-017-270900-
NORTHWEST NORTH DAKOTA

CITY           SKY/WX    TMP DP  RH WIND       PRES   REMARKS
WILLISTON      FAIR      48  40  73 W6        29.85R
MINOT          FAIR      52  39  61 W12       29.81S
MINOT AFB      CLEAR     50  40  67 W13       29.79S
$$

NDZ018>021-031>035-040>046-270900-
SOUTHWEST NORTH DAKOTA

CITY           SKY/WX    TMP DP  RH WIND       PRES   REMARKS
BISMARCK       FAIR      48  37  65 CALM      29.86S
DICKINSON      FAIR      41  33  73 W8        29.87F
GARRISON         N/A     47  36  65 W7        29.84S
HETTINGER ARPT CLOUDY    42  34  73 NW5       29.92F
$$

NDZ004>008-012>016-024-026-027-054-270900-
NORTHEAST NORTH DAKOTA

CITY           SKY/WX    TMP DP  RH WIND       PRES   REMARKS
GRAND FORKS    CLOUDY    53  43  68 SW9       29.77F
GRND FRKS AFB  PTCLDY    48  42  79 SW8       29.78F
DEVILS LAKE    MOCLDY    51  42  71 W8        29.79F
$$

NDZ022-023-025-028>030-036>039-047>053-270900-
SOUTHEAST NORTH DAKOTA

CITY           SKY/WX    TMP DP  RH WIND       PRES   REMARKS
FARGO          CLOUDY    51  43  74 SW8       29.82S
JAMESTOWN      FAIR      54  41  61 SW9       29.83R
$$





USA.gov is the U.S. government's official web portal to all federal, state and local government web resources and services.